Regional Weather Roundup
Issued by NWS

Home | Current Version | Previous Version | Text Only | Print | Product List | Glossary On
Versions: 1 2 3 4 5 6 7 8 9 10 11 12 13 14 15 16 17 18 19 20 21 22 23 24 25 26 27 28 29 30 31 32 33 34 35 36 37 38 39 40 41 42 43 44 45 46 47 48 49 50
000
ASHW40 PHFO 252312
RWRHI

WEATHER ROUNDUP FOR HAWAII
NATIONAL WEATHER SERVICE HONOLULU HI
100 PM HST MON SEP 25 2017

THIS IS AN AUTOMATED REPORT THAT HAS NOT BEEN QUALITY CONTROLLED.

NOTE..."FAIR" INDICATES FEW OR NO CLOUDS BELOW 12,000 FEET WITH NO
SIGNIFICANT WEATHER AND/OR OBSTRUCTIONS TO VISIBILITY.

* - THESE SITES REPORT LIMITED FIELDS
# - BUOY DATA PROVIDED BY PACIFIC ISLANDS OCEAN OBSERVING SYSTEM.

HIZ001>004-260000-
KAUAI-NIIHAU-

CITY           SKY/WX    TMP DP  RH WIND       PRES   REMARKS
LIHUE APT      SUNNY     86  68  54 NE13      29.97F
PORT ALLEN*      N/A     86 N/A N/A SE22G28     N/A
POIPU*           N/A     86 N/A N/A E8G17       N/A
PRINCEVILLE*     N/A     81 N/A N/A NE7G13      N/A
KOKOLE POINT*  NOT AVBL
MOLOAA DAIRY*    N/A     90  70  51 NE3G10      N/A  HX  95
WAIMEA HTS*    NOT AVBL
PUU OPAE*      NOT AVBL
PUU LUA*       NOT AVBL
MAKAHA RIDGE*  NOT AVBL
$$

HIZ005>011-260000-
OAHU-

CITY           SKY/WX    TMP DP  RH WIND       PRES   REMARKS
HONOLULU       PTSUNNY   85  66  53 S7        29.92F
KALAELOA       PTSUNNY   85  69  58 SW7       29.94F
KANEOHE MCB    NOT AVBL
WHEELER FIELD  PTSUNNY   83  65  54 CALM      29.93F
BELLOWS*       NOT AVBL
KAHUKU*        NOT AVBL
WHEELER*       NOT AVBL
WAIANAE HARBOR NOT AVBL
DILLINGHAM*      N/A     90  73  58 S1G12       N/A  HX  98
KAHUKU TRN*      N/A     84  66  54 W5G14       N/A
KAWAILOA*        N/A     81  66  61 NE9G16      N/A
KII*             N/A     82  70  65 NE8G16      N/A
MAKUA RANGE*     N/A     72  52  49 W12G21      N/A
OAHU FOREST NW NOT AVBL
SCHOFIELD BRK*   N/A     84  66  54 MISG        N/A
SCHOFIELD S*   NOT AVBL
WAIANAE VLY*   NOT AVBL
KUAOKALA*      NOT AVBL
HONOULIUULI*   NOT AVBL
MOKUOLOE IS*   NOT AVBL
PALEHUA*       NOT AVBL
WAIAWA PHB*    NOT AVBL
$$

HIZ012>013-260000-
MOLOKAI-

CITY           SKY/WX    TMP DP  RH WIND       PRES   REMARKS
MOLOKAI AIRPT  SUNNY     85  68  56 N14       29.96F
KALAUPAPA      NOT AVBL
MAKAPULAPAI*   NOT AVBL
MOLOKAI 1*     NOT AVBL
PUU ALII*      NOT AVBL
$$

HIZ016-260000-
KAHOOLAWE-

CITY           SKY/WX    TMP DP  RH WIND       PRES   REMARKS
KAHOOLAWE*     NOT AVBL
HAKIOAWA*      NOT AVBL
HONOKANAIA*      N/A     89  66  46 SE7G15      N/A  HX  91
KANELOA*         N/A     84  64  51 NE10G16   30.03F
KEALIALALO*    NOT AVBL
LUA MAKIKA*    NOT AVBL
$$

HIZ014>015-260000-
LANAI-

CITY           SKY/WX    TMP DP  RH WIND       PRES   REMARKS
LANAI CITY     CLOUDY    78  65  63 S3        30.00F
LANAI 1*       NOT AVBL
$$

HIZ017>028-260000-
MAUI-

CITY           SKY/WX    TMP DP  RH WIND       PRES   REMARKS
KAHULUI        MOSUNNY   85  70  60 N14       29.94F
KAPALUA-W MAUI MOSUNNY   86  64  48 N14G26    29.95
HANA AIRPORT   NOT AVBL
HANA*          NOT AVBL
HALEAKALA SUMM   N/A     54  41  62 NE13G25     N/A
MAALAEA BAY*   NOT AVBL
HALEAKALA*     NOT AVBL
KAUPO GAP*     NOT AVBL
KULA 1*          N/A     58  56  93 NW5G13      N/A
$$

HIZ023>026-260000-
BIG ISLAND OF HAWAII COAST AND LOWER SLOPES-

CITY           SKY/WX    TMP DP  RH WIND       PRES   REMARKS
KAILUA KONA    MOSUNNY   86  69  56 NW14      29.91F HX  90
HILO           SUNNY     83  69  62 N12       29.94F
HONOKAA*         N/A     79 N/A N/A VRB1        N/A
KAWAIHAE MWT*    N/A     84 N/A N/A W10         N/A
KAWAIHAE*      NOT AVBL
SOUTH POINT*     N/A     79 N/A N/A NE10G17     N/A
UPOLU AIRPORT* NOT AVBL
KAMUELA*       NOT AVBL
HAKALAU*         N/A     64  55  72 NE6G16      N/A
KALOKO-HONOKO* NOT AVBL
PALI 2*          N/A     75  63  64 NW12        N/A
KEALAKOMO*       N/A     84  70  61 E22G28      N/A
KAUPULEHU*     NOT AVBL
KAPAPALA*        N/A     78  70  76 SE7G13      N/A
LOWER KAHUKU*  NOT AVBL
PUHE CS*       NOT AVBL
PUHO CS*       NOT AVBL
PTA KEAMUKU*     N/A    N/A N/A N/A W12G21      N/A
WAIKOLOA*      NOT AVBL
$$

HIZ027>028-260000-
BIG ISLAND OF HAWAII INTERIOR AND SUMMMITS-

CITY           SKY/WX    TMP DP  RH WIND       PRES   REMARKS
BRADSHAW FIELD PTSUNNY   71  51  49 SW12G18   30.24F
MK VISITOR CEN   N/A     52  46  82 S5          N/A
MAUNA KEA*       N/A     46  -2  13 W14         N/A
MAUNA LOA*       N/A     54  36  50 MISG        N/A
MAUNA LOA 1*   NOT AVBL
PTA KIPUKA*      N/A     45  34  65 S8G15       N/A
PTA RANGE 17*    N/A     48  39  71 SE13G21     N/A
PTA WEST*        N/A     72  59  64 NW12G18     N/A
NENE CABIN*    NOT AVBL
AHUMOA*        NOT AVBL
PTA PORTABLE*  NOT AVBL
PUU MALI*        N/A     63  55  77 NE9         N/A
$$

HIC003-260000-
NORTHWEST ISLANDS-

CITY           SKY/WX    TMP DP  RH WIND       PRES   REMARKS
MIDWAY ISLAND  CLOUDY    82  75  78 VRB6      30.02S
MIDWAY NOS*    NOT AVBL
FRENCH FRIGATE NOT AVBL
$$

PHZ110>124-180-260000-
BUOY REPORTS

STATION/POSITION TIME  TEMP    WIND        PRES    WAVE   SWELL
                       AIR SEA DIR/SP/G            HT/PER HT/DIR
                 (UTC) (F)     (DEG/KT/KT) (MB)    (FT/S) (FT/D)
BUOY 51001       2250   80 82  100/  4/  8 1015.1F   3/ 8   3/ 70
BUOY 51101       2250   80 83  100/  4/  6 1015.6F   4/ 9   3/ 10
BUOY 51100       NOT AVBL
BUOY 51002       2250   80 81   60/  8/ 12 1012.9F   4/12   3/180
BUOY 51003       2250   80 82   30/ 10/ 12 1013.4F   4/10   3/330
BUOY 51004       2250      81   20/ 10/ 12 1012.7F   4/ 8   3/ 60
WAIMEA BAY#      2232      80                N/A     3/11   2/340
MOKAPU POINT#    2234      81                N/A     4/ 8   2/ 50
LANAI#           NOT AVBL
BARBERS PT 2#    NOT AVBL
PAUWELA#         2239      82                N/A     4/11   2/350
HILO#            2257      81                N/A     4/ 8   2/ 80
KANEOHE BAY#     NOT AVBL
KANEOHE BAY 2#   NOT AVBL
HANALEI#         2222      82                N/A     3/11   2/320
KAHULUI HARBOR   2248           10/ 10/ 12 1014.1F
HONOLULU HARBOR  2248   83 81  340/  4/ 11 1014.1F
PEARL HARBOR#    2230      82                N/A     2/14   2/170
KILO NALU        NOT AVBL
HILO HARBOR      2248   81 81   30/ 10/ 12 1013.5F
MOKUOLOE         2236   80 82   20/  5/  7 1014.5F
NAWILIWILI       2248   81      40/  8/ 12 1014.4F
WHOTS BUOY       NOT AVBL
BUOY 51028       NOT AVBL
$$

......................KEY........................................
  SKY/WX - SKY CONDITIONS/PRESENT WEATHER
  TMP    - TEMPERATURE IN FAHRENHEIT
  DWPT   - DEWPOINT IN FAHRENHEIT
  RH     - RELATIVE HUMIDITY IN PERCENT
  WIND   - DIRECTION AND SPEED /MPH FOR ISLANDS...KTS FOR BUOYS/
  PRES   - MEAN SEA LEVEL PRESSURE IN INCHES OF HG
  VSB    - VISIBILITY IN MILES
  HX     - HEAT INDEX
  WCI    - WIND CHILL INDEX
  VRB    - VARIABLE WIND DIRECTION
  N/A    - NOT AVAILABLE




USA.gov is the U.S. government's official web portal to all federal, state and local government web resources and services.